International Virtual Aviation Organisation

Russian Federation and Kazakhstan MCD

 

Карточка аэропорта UUWW

Внимание!
Информация на этой странице в стадии наполнения.
Если вы не увидели какой-то информации, или заметили неточность - пожалуйста сообщите нам!
Спасибо!
Команда RU-STAFF
Название аэропортаВнуково
Название аэропорта (англ.)Vnukovo
Превышение686 ft. (209.1 m.)
Координаты55°35.952', 37°16.386'
Высота перехода1200 m
Эшелон переходаBy ATC
Коды ответчика2101-2117
Зона ОрВДМосква РПИ (UUWV)
Данные METARUUWW 181930Z 31004MPS 9999 SCT033 07/05 Q0999 R24/290050 NOSIG
Проноз погоды (TAF)UUWW 181653Z 1818/1918 31003MPS 9999 BKN020 TX11/1912Z TN06/1903Z TEMPO 1821/1906 FEW004 TEMPO 1906/1915 -SHRA SCT015CB
NOTAMshow/hide NOTAM
AWOS   TABLE

Информация о ВПП

ВПП Длина ВПП (м.) Покрытие Курс ВПП Частота ILS
013060Бетон13111.7
193060Бетон193111.5
063500Бетон58108.9
243500Бетон238111.1

Диспетчерские позиции

Позывной Наименование органа УВД Частота
UUWW_TWRВнуково-Старт/Посадка118.300
UUWW_R_APPВнуково-Круг126.000
UUWW_GNDВнуково-Руление120.450
UUWW_DELВнуково-Деливери131.800



Спутниковое изображение